Location: Veytaux
(46.4185°N, 6.9320°E)
Time: 08:20:15
(UTC+00:00)

Cosmos 2315 Rocket - Pass Details

Date: 27 May 2022
Orbit: 966 x 1002 km, 82.9° (Epoch: 01 July)

Event Time Altitude Azimuth Distance (km) Brightness Sun altitude
Exits shadow 00:18:31 36° 165° (SSE) 1,536 4.6 -21.4°
Maximum altitude 00:21:14 68° 94° (E) 1,075 4.2 -21.3°
Drops below altitude 10° 00:27:34 10° 13° (NNE) 2,786 7.6 -21.0°
Sets 00:30:08 0° 11° (NNE) 3,740 8.6 -20.9°
